sat.trackr.live / text

‹ back to catalog

STARLINK-5503

NORAD 57257 · 2023-094AR

PAYLOAD ACTIVE UNKNOWN

§ Identity

Operator
Country
US
Launch date
2023-07-07
Launch site
AFWTR
Launch vehicle
Mass (kg)
RCS (m²)

Purposes: comms

External: N2YO · Heavens-Above · Gunter

§ Orbital elements

Epoch: 2026-05-24T21:17:57.446016Z

Period
94.27 min
Inclination
43.0033°
Eccentricity
0.0001197
Mean motion
15.27577052 rev/d
Perigee alt
482.2 km
Apogee alt
483.9 km
Semi-major
6,861.2 km
B*
2.6209e-5
RAAN
309.5441°
Arg perigee
250.0429°
Mean anomaly
110.0294°
Rev number
15,955

§ Raw data

STARLINK-55031 57257U 23094AR  26144.88747044  .00000459  00000+0  26209-4 0  99932 57257  43.0033 309.5441 0001197 250.0429 110.0294 15.27577052159550

JSON: /api/v1/satellites/57257 · /tle

For live sub-satellite position, see the globe view (requires WebGL).

§ Visibility from observer

Set your observer location to see the next 7 days of passes ≥ 10°. The values pass through the URL so the page stays shareable.

No JS? Fill the form by hand. The geolocation button needs JavaScript.